Sitka, AK

3:16 PM AKDT on June 28, 2017 (GMT -0800)
Sitka Rocky Gutierrez

Weather History for PASI - February, 2012

Change the Weather History Date:

Thursday, February 2, 2012

  Actual Average Record
Temperature  
Mean Temperature 44 °F -  
Max Temperature 48 °F 38 °F 52 °F (1977)
Min Temperature 39 °F 30 °F 2 °F (1968)
Degree Days  
Heating Degree Days 22    
Moisture  
Dew Point 37 °F    
Average Humidity 81    
Maximum Humidity 93    
Minimum Humidity 61    
Precipitation  
Precipitation 0.44 in - - ()
Sea Level Pressure  
Sea Level Pressure 29.68 in    
Wind  
Wind Speed 20 mph (SE)    
Max Wind Speed 37 mph    
Max Gust Speed 53 mph    
Visibility 8 miles    
Events Rain    
Averages and records for this station are not official NWS values.
T = Trace of Precipitation, MM = Missing Value Source: NWS Daily Summary

Daily Weather History Graph

Daily Weather History Graph

Search for Another Location

Airport or City:

Trip Planner

Search our weather history database for the weather conditions in past years. The results will help you decide how hot, cold, wet, or windy it might be!

Date:

Astronomy

Feb. 02, 2012 Rise Set
Actual Time 7:59 AM AKST 4:31 PM AKST
Civil Twilight 7:16 AM AKST 5:14 PM AKST
Nautical Twilight 6:30 AM AKST 6:00 PM AKST
Astronomical Twilight 5:46 AM AKST 6:45 PM AKST
Moon 11:20 AM AKST (2/2) 4:16 AM AKST (2/2)
Length of Visible Light 9h 57m
Length of Day
8h 32m
Waxing Gibbous, 75% of the Moon is Illuminated
Feb 2
Waxing Gibbous
Feb 7
Full
Feb 14
Last Quarter
Feb 21
New
Feb 29
First Quarter

Hourly Weather History & Observations

Time (AKST) Temp. Windchill Dew Point Humidity Pressure Visibility Wind Dir Wind Speed Gust Speed Precip Events Conditions
12:53 AM 43.0 °F 32.7 °F 37.9 °F 82% 29.59 in 8.0 mi SSE 28.8 mph 47.2 mph 0.00 in Rain Light Rain
1:30 AM 42.8 °F 33.5 °F 37.4 °F 81% 29.63 in 6.0 mi South 23.0 mph 34.5 mph 0.01 in Rain Light Rain
1:44 AM 39.2 °F 28.3 °F 37.4 °F 93% 29.65 in 2.0 mi South 25.3 mph 41.4 mph 0.12 in Rain Heavy Rain
1:51 AM 39.2 °F 29.3 °F 37.4 °F 93% 29.66 in 1.8 mi SSW 20.7 mph 38.0 mph 0.19 in Rain Heavy Rain
1:53 AM 41.0 °F 31.6 °F 37.9 °F 89% 29.67 in 2.0 mi South 20.7 mph 38.0 mph 0.20 in Rain Heavy Rain
2:04 AM 42.8 °F 34.8 °F 37.4 °F 81% 29.67 in 8.0 mi South 17.3 mph 41.4 mph 0.02 in Rain Light Rain
2:14 AM 42.8 °F 33.1 °F 37.4 °F 81% 29.68 in 7.0 mi South 25.3 mph 33.4 mph 0.02 in Rain Light Rain
2:53 AM 41.0 °F 31.9 °F 37.0 °F 86% 29.72 in 5.0 mi SSE 19.6 mph 32.2 mph 0.03 in Rain Light Rain
3:03 AM 42.8 °F 34.5 °F 37.4 °F 81% 29.72 in 6.0 mi South 18.4 mph 28.8 mph 0.00 in Rain Light Rain
3:14 AM 41.0 °F 33.5 °F 37.4 °F 87% 29.73 in 3.0 mi SSE 13.8 mph 31.1 mph 0.01 in Rain Light Rain
3:30 AM 41.0 °F 31.6 °F 37.4 °F 87% 29.74 in 8.0 mi South 20.7 mph 32.2 mph 0.02 in Rain Light Rain
3:44 AM 41.0 °F 31.4 °F 37.4 °F 87% 29.75 in 4.0 mi South 21.9 mph 27.6 mph 0.02 in Rain Light Rain
3:53 AM 41.0 °F 32.8 °F 37.9 °F 89% 29.76 in 5.0 mi South 16.1 mph 26.5 mph 0.03 in Rain Light Rain
4:53 AM 41.0 °F 32.8 °F 37.0 °F 86% 29.80 in 9.0 mi South 16.1 mph 25.3 mph 0.02 in   Overcast
5:53 AM 39.9 °F 32.5 °F 37.0 °F 89% 29.83 in 8.0 mi SSE 12.7 mph - N/A   Overcast
6:22 AM 39.2 °F 32.0 °F 37.4 °F 93% 29.83 in 6.0 mi South 11.5 mph - 0.00 in Rain Light Rain
6:53 AM 41.0 °F 37.1 °F 35.1 °F 79% 29.84 in 10.0 mi ESE 5.8 mph - 0.01 in   Overcast
7:53 AM 39.0 °F 33.4 °F 35.1 °F 86% 29.86 in 10.0 mi ESE 8.1 mph - N/A   Overcast
8:53 AM 41.0 °F 34.7 °F 35.1 °F 79% 29.86 in 10.0 mi SE 10.4 mph - N/A   Overcast
9:53 AM 41.0 °F 34.3 °F 33.1 °F 73% 29.85 in 10.0 mi ESE 11.5 mph - N/A   Mostly Cloudy
10:53 AM 41.0 °F 35.2 °F 34.0 °F 76% 29.83 in 10.0 mi ESE 9.2 mph - N/A   Overcast
11:53 AM 43.0 °F 37.7 °F 34.0 °F 71% 29.79 in 10.0 mi ESE 9.2 mph - N/A   Overcast
12:53 PM 43.0 °F 35.1 °F 34.0 °F 71% 29.74 in 10.0 mi ESE 17.3 mph - N/A   Overcast
1:53 PM 42.1 °F 37.1 °F 35.1 °F 76% 29.66 in 10.0 mi East 8.1 mph - 0.00 in Rain Light Rain
2:53 PM 42.1 °F 37.7 °F 36.0 °F 79% 29.61 in 8.0 mi ESE 6.9 mph - 0.00 in Rain Light Rain
3:53 PM 39.9 °F 31.8 °F 36.0 °F 86% 29.60 in 5.0 mi ESE 15.0 mph 21.9 mph 0.08 in Rain Rain
4:02 PM 39.2 °F 31.2 °F 35.6 °F 87% 29.58 in 7.0 mi ESE 13.8 mph 27.6 mph 0.00 in Rain Light Rain
4:53 PM 42.1 °F 32.6 °F 36.0 °F 79% 29.55 in 6.0 mi ESE 23.0 mph 33.4 mph 0.07 in Rain Rain
5:53 PM 44.1 °F 35.4 °F 37.9 °F 79% 29.57 in 10.0 mi ESE 21.9 mph 32.2 mph 0.02 in   Overcast
6:53 PM 44.1 °F 36.2 °F 39.0 °F 82% 29.56 in 10.0 mi ESE 18.4 mph 28.8 mph 0.01 in Rain Light Rain
7:53 PM 46.0 °F 39.6 °F 37.9 °F 73% 29.57 in 10.0 mi SE 15.0 mph 24.2 mph 0.00 in   Overcast
8:53 PM 46.9 °F - 37.9 °F 71% 29.53 in 10.0 mi ESE 20.7 mph 28.8 mph N/A   Overcast
9:53 PM 48.0 °F - 37.0 °F 66% 29.52 in 10.0 mi SE 24.2 mph 32.2 mph N/A   Mostly Cloudy
10:53 PM 48.0 °F - 35.1 °F 61% 29.48 in 10.0 mi ESE 36.8 mph 48.3 mph N/A   Overcast
11:53 PM 46.9 °F - 35.1 °F 63% 29.43 in 10.0 mi ESE 29.9 mph 52.9 mph N/A   Mostly Cloudy